#�ϑ�����,���ϕ���,���ϕ���,�ő啗��,�ő啗����������,�ő�u�ԕ���,�ő�u�ԕ�����������
#(�N����),(m/s)   ,(16����),(m/s)   ,(16����)        ,(m/s)       ,(16����)            
2018/3/2 0:01,1.5,1,1.5,15,2.9,3
2018/3/2 0:02,1.5,1,1.5,16,1.1,1
2018/3/2 0:03,1.5,1,1.5,16,2.7,8
2018/3/2 0:04,1.6,1,1.6,16,4.1,10
2018/3/2 0:05,1.5,1,1.6,16,1.8,10
2018/3/2 0:06,1.4,1,1.5,16,1.9,10
2018/3/2 0:07,1.4,11,1.4,1,2.5,7
2018/3/2 0:08,1.5,13,1.5,1,2.9,1
2018/3/2 0:09,1.4,11,1.5,1,3.7,15
2018/3/2 0:10,1.3,13,1.4,1,1.8,14
2018/3/2 0:11,1.1,12,1.2,1,0.5,1
2018/3/2 0:12,1.1,13,1.1,1,1.8,16
2018/3/2 0:13,1.2,14,1.2,1,2.5,16
2018/3/2 0:14,1.1,15,1.2,1,1.9,15
2018/3/2 0:15,1,16,1.1,1,1.1,1
2018/3/2 0:16,1.1,16,1.1,12,2.9,1
2018/3/2 0:17,1.1,16,1.1,12,2.6,1
2018/3/2 0:18,1,16,1.1,12,1.3,10
2018/3/2 0:19,0.9,15,1,12,1.3,11
2018/3/2 0:20,0.9,15,0.9,13,1.4,11
2018/3/2 0:21,0.9,15,0.9,13,0.5,14
2018/3/2 0:22,0.9,15,0.9,13,1.8,15
2018/3/2 0:23,0.8,15,0.8,14,1.8,15
2018/3/2 0:24,0.9,15,0.9,15,1.6,16
2018/3/2 0:25,0.9,15,0.9,16,1.9,2
2018/3/2 0:26,0.8,15,0.9,16,1.4,2
2018/3/2 0:27,0.9,15,0.9,16,2.7,1
2018/3/2 0:28,0.9,16,0.9,15,2.2,1
2018/3/2 0:29,1.1,16,1.1,16,3.7,1
2018/3/2 0:30,1.1,1,1.1,16,2,2
2018/3/2 0:31,1.1,1,1.1,16,1.6,3
2018/3/2 0:32,1.3,1,1.3,1,4.5,1
2018/3/2 0:33,1.5,1,1.5,1,3.6,14
2018/3/2 0:34,1.5,1,1.5,1,3.3,13
2018/3/2 0:35,1.6,16,1.6,1,2.7,12
2018/3/2 0:36,1.6,16,1.7,16,3.1,9
2018/3/2 0:37,1.6,16,1.7,16,2.6,5
2018/3/2 0:38,1.6,16,1.6,16,1.5,4
2018/3/2 0:39,1.5,16,1.6,16,2.9,1
2018/3/2 0:40,1.5,15,1.5,16,3.2,15
2018/3/2 0:41,1.7,15,1.7,16,3.8,1
2018/3/2 0:42,1.7,15,1.8,15,4.7,14
2018/3/2 0:43,1.5,15,1.7,15,2.9,4
2018/3/2 0:44,1.6,1,1.6,15,3.3,1
2018/3/2 0:45,1.5,1,1.6,15,2.4,4
2018/3/2 0:46,1.7,1,1.7,15,5,16
2018/3/2 0:47,1.9,1,1.9,1,7.5,16
2018/3/2 0:48,2.3,1,2.3,1,6.8,16
2018/3/2 0:49,2.3,16,2.3,1,4.5,16
2018/3/2 0:50,2.4,16,2.4,16,2.2,15
2018/3/2 0:51,2.3,16,2.3,16,3.1,15
2018/3/2 0:52,2.3,16,2.3,16,3.8,10
2018/3/2 0:53,2.3,15,2.4,16,3.8,11
2018/3/2 0:54,2.3,15,2.3,16,4.2,7
2018/3/2 0:55,2.3,15,2.4,16,3.5,6
2018/3/2 0:56,2.1,14,2.3,16,2.1,16
2018/3/2 0:57,1.9,15,2.1,16,4.1,6
2018/3/2 0:58,1.6,14,1.9,16,2.6,15
2018/3/2 0:59,1.5,14,1.6,16,3.1,16
2018/3/2 1:00,1.5,14,1.5,16,4.1,14
2018/3/2 1:01,1.6,14,1.6,16,6.1,16
2018/3/2 1:02,1.8,15,1.8,16,4.9,15
2018/3/2 1:03,1.9,15,1.9,15,4.8,15
2018/3/2 1:04,2.1,15,2.1,15,6.9,16
2018/3/2 1:05,2.2,15,2.2,15,4.2,16
2018/3/2 1:06,2.4,15,2.4,15,3.7,16
2018/3/2 1:07,2.4,15,2.4,15,2.9,16
2018/3/2 1:08,2.9,15,2.9,15,11.8,16
2018/3/2 1:09,3.2,15,3.2,15,6.7,16
2018/3/2 1:10,3.4,15,3.4,15,9.7,16
2018/3/2 1:11,3.3,15,3.4,15,4.4,16
2018/3/2 1:12,3.2,15,3.3,15,4.2,8
2018/3/2 1:13,3,15,3.1,15,3,8
2018/3/2 1:14,2.7,14,3,15,1.9,9
2018/3/2 1:15,2.6,13,2.7,15,3.2,8
2018/3/2 1:16,2.6,11,2.6,15,4.1,6
2018/3/2 1:17,2.8,9,2.8,15,3.9,7
2018/3/2 1:18,2.2,9,2.8,15,2.4,9
2018/3/2 1:19,1.8,9,2.1,15,1.8,16
2018/3/2 1:20,1.6,9,1.8,15,1.9,16
2018/3/2 1:21,1.5,8,1.5,15,2.4,1
2018/3/2 1:22,1.5,7,1.5,15,2.5,3
2018/3/2 1:23,1.5,5,1.5,15,3.2,2
2018/3/2 1:24,1.6,3,1.6,10,4.2,2
2018/3/2 1:25,1.9,2,1.9,10,9,2
2018/3/2 1:26,2,1,2,10,5.8,15
2018/3/2 1:27,2,1,2,9,6.1,15
2018/3/2 1:28,2.1,1,2.1,9,3.5,16
2018/3/2 1:29,2.2,1,2.2,1,2.4,14
2018/3/2 1:30,2.2,1,2.2,1,3.1,3
2018/3/2 1:31,2.2,1,2.2,1,3.3,8
2018/3/2 1:32,2.3,1,2.3,1,3.9,8
2018/3/2 1:33,2.3,16,2.4,16,3,8
2018/3/2 1:34,2.4,15,2.4,16,4.8,10
2018/3/2 1:35,2.1,12,2.4,16,3.3,8
2018/3/2 1:36,1.9,9,2.1,16,2.9,8
2018/3/2 1:37,1.7,9,1.8,16,1.8,11
2018/3/2 1:38,1.6,9,1.7,16,1.5,1
2018/3/2 1:39,1.6,8,1.6,16,1.9,3
2018/3/2 1:40,1.6,8,1.7,16,2,4
2018/3/2 1:41,1.6,7,1.6,16,2.9,2
2018/3/2 1:42,1.4,7,1.6,16,2.2,1
2018/3/2 1:43,1.4,2,1.4,16,1.9,3
2018/3/2 1:44,1.4,1,1.4,15,5.2,16
2018/3/2 1:45,1.4,16,1.4,11,4.4,16
2018/3/2 1:46,1.6,16,1.6,9,4.7,13
2018/3/2 1:47,1.6,16,1.6,9,2.6,2
2018/3/2 1:48,1.7,1,1.7,8,3,1
2018/3/2 1:49,1.9,16,1.9,16,4.9,16
2018/3/2 1:50,2.1,16,2.1,16,5.6,16
2018/3/2 1:51,2.2,16,2.2,16,4.7,16
2018/3/2 1:52,2.4,16,2.4,16,3,16
2018/3/2 1:53,2.4,15,2.4,16,2.9,12
2018/3/2 1:54,2.3,15,2.4,16,3.6,15
2018/3/2 1:55,2.2,15,2.3,16,4.2,15
2018/3/2 1:56,2,16,2.2,16,1.4,15
2018/3/2 1:57,2,16,2,16,1.6,2
2018/3/2 1:58,2.1,15,2.1,16,4.2,1
2018/3/2 1:59,2,15,2.1,16,3.8,15
2018/3/2 2:00,2,15,2,16,4.9,16
2018/3/2 2:01,1.7,15,2,16,2,3
2018/3/2 2:02,1.6,15,1.7,16,2.9,4
2018/3/2 2:03,1.7,16,1.7,15,4.2,1
2018/3/2 2:04,2,1,2,15,6.4,2
2018/3/2 2:05,2.1,1,2.1,15,5.2,1
2018/3/2 2:06,2.4,1,2.4,1,4.9,16
2018/3/2 2:07,2.6,1,2.6,1,5.5,16
2018/3/2 2:08,2.7,1,2.7,1,5.8,15
2018/3/2 2:09,2.8,1,2.8,1,7.9,16
2018/3/2 2:10,2.6,1,2.8,1,1.4,3
2018/3/2 2:11,2.6,1,2.6,1,1.5,1
2018/3/2 2:12,2.7,1,2.7,1,3.3,1
2018/3/2 2:13,2.5,1,2.7,1,1.6,6
2018/3/2 2:14,2.3,1,2.5,1,4.1,8
2018/3/2 2:15,2.2,1,2.3,1,3.7,7
2018/3/2 2:16,2,2,2.1,1,1.8,6
2018/3/2 2:17,1.6,3,2,1,0.8,6
2018/3/2 2:18,1.3,4,1.6,1,1.8,6
2018/3/2 2:19,1.1,4,1.3,1,2.2,15
2018/3/2 2:20,1,4,1,1,1.3,14
2018/3/2 2:21,1,5,1,1,0.9,6
2018/3/2 2:22,0.9,6,0.9,1,2,8
2018/3/2 2:23,0.9,6,0.9,1,2,7
2018/3/2 2:24,0.8,5,0.9,1,1.9,2
2018/3/2 2:25,0.6,5,0.8,1,1,6
2018/3/2 2:26,0.6,4,0.6,2,0.9,13
2018/3/2 2:27,0.6,16,0.6,3,1.5,9
2018/3/2 2:28,0.6,13,0.7,4,1.8,9
2018/3/2 2:29,0.8,14,0.8,4,3.5,16
2018/3/2 2:30,0.9,15,0.9,4,2.7,2
2018/3/2 2:31,1.2,15,1.2,16,9,16
2018/3/2 2:32,1.7,16,1.7,16,9.4,16
2018/3/2 2:33,2.3,15,2.3,15,10.8,16
2018/3/2 2:34,3,15,3,15,11.5,16
2018/3/2 2:35,3.3,15,3.3,15,7.7,13
2018/3/2 2:36,3.6,15,3.6,15,5.1,16
2018/3/2 2:37,3.9,15,3.9,15,8.7,1
2018/3/2 2:38,4.2,15,4.2,15,6.2,15
2018/3/2 2:39,4.4,16,4.4,16,5.4,16
2018/3/2 2:40,4.8,15,4.8,15,7.9,15
2018/3/2 2:41,4.7,15,4.9,15,6.7,16
2018/3/2 2:42,4.7,15,4.7,15,10.1,16
2018/3/2 2:43,4.6,15,4.7,15,9.9,16
2018/3/2 2:44,4.2,15,4.5,15,7,16
2018/3/2 2:45,4.2,16,4.2,15,5.8,1
2018/3/2 2:46,4.2,16,4.2,15,6,15
2018/3/2 2:47,4.3,16,4.3,15,7.5,16
2018/3/2 2:48,4.2,16,4.3,15,5.8,15
2018/3/2 2:49,4.2,16,4.2,15,6.1,11
2018/3/2 2:50,3.9,16,4.2,15,3.7,8
2018/3/2 2:51,4,16,4,15,7.5,15
2018/3/2 2:52,3.6,16,3.9,15,2.9,1
2018/3/2 2:53,3.3,16,3.5,15,4.9,15
2018/3/2 2:54,3.2,16,3.3,16,5.8,16
2018/3/2 2:55,3.1,15,3.2,16,3.8,13
2018/3/2 2:56,3.1,15,3.1,16,4.9,12
2018/3/2 2:57,2.8,14,3.1,16,4.2,13
2018/3/2 2:58,2.5,14,2.8,16,1.1,12
2018/3/2 2:59,2.3,14,2.5,16,2.1,9
2018/3/2 3:00,2.3,14,2.3,16,2.7,1
2018/3/2 3:01,2,14,2.3,16,3.6,15
2018/3/2 3:02,2.2,14,2.2,16,5.8,15
2018/3/2 3:03,2.3,14,2.4,16,6.5,16
2018/3/2 3:04,2.1,14,2.3,16,3.1,2
2018/3/2 3:05,2.1,13,2.1,15,5.7,9
2018/3/2 3:06,2,13,2.1,15,3.7,9
2018/3/2 3:07,1.9,12,1.9,14,3,10
2018/3/2 3:08,2,10,2,14,3.2,10
2018/3/2 3:09,2.3,12,2.3,14,7.7,13
2018/3/2 3:10,2.5,13,2.5,13,7.9,14
2018/3/2 3:11,2.6,12,2.6,12,5.1,12
2018/3/2 3:12,2.5,12,2.6,12,3.8,12
2018/3/2 3:13,2.2,11,2.4,12,4.2,10
2018/3/2 3:14,2.3,11,2.3,12,5.4,11
2018/3/2 3:15,2.2,12,2.3,12,2,16
2018/3/2 3:16,2.1,12,2.1,12,2.6,15
2018/3/2 3:17,2.3,13,2.3,12,5.5,15
2018/3/2 3:18,2.4,13,2.4,12,5.5,15
2018/3/2 3:19,2.3,14,2.4,12,5.2,1
2018/3/2 3:20,2.2,14,2.3,12,5.6,15
2018/3/2 3:21,2.2,15,2.2,12,7.7,15
2018/3/2 3:22,2.3,15,2.3,12,4.7,16
2018/3/2 3:23,2.5,16,2.5,16,5.4,16
2018/3/2 3:24,2.5,16,2.5,16,3.7,16
2018/3/2 3:25,2.5,16,2.5,16,3,16
2018/3/2 3:26,2.6,16,2.6,16,2.7,16
2018/3/2 3:27,2.3,16,2.6,16,1.1,16
2018/3/2 3:28,2,16,2.3,16,0.6,8
2018/3/2 3:29,1.8,16,2,16,1.6,11
2018/3/2 3:30,1.6,16,1.7,16,0.8,13
2018/3/2 3:31,1.4,16,1.6,16,1.9,16
2018/3/2 3:32,1.1,16,1.4,16,1.3,2
2018/3/2 3:33,1,16,1.1,16,3.2,1
2018/3/2 3:34,1,16,1.1,16,3.7,1
2018/3/2 3:35,1.2,16,1.2,16,5.2,1
2018/3/2 3:36,1.2,16,1.2,16,6.2,16
2018/3/2 3:37,1.1,16,1.1,16,0.8,16
2018/3/2 3:38,1.5,16,1.5,16,7.1,4
2018/3/2 3:39,1.8,16,1.8,16,7.5,16
2018/3/2 3:40,2.1,16,2.1,16,6.1,15
2018/3/2 3:41,2.3,16,2.3,16,6.1,15
2018/3/2 3:42,2.4,16,2.4,16,4.5,10
2018/3/2 3:43,2.4,16,2.4,16,3.5,16
2018/3/2 3:44,2.5,15,2.5,15,4.7,1
2018/3/2 3:45,2.4,15,2.5,15,4.5,16
2018/3/2 3:46,2.5,15,2.5,15,3.6,16
2018/3/2 3:47,2.5,15,2.5,15,1.1,16
2018/3/2 3:48,2.1,15,2.5,15,1.8,16
2018/3/2 3:49,2.1,15,2.2,15,3.1,1
2018/3/2 3:50,1.8,15,2,15,2.6,1
2018/3/2 3:51,1.8,15,1.8,15,6.3,16
2018/3/2 3:52,2.1,15,2.1,15,7.1,14
2018/3/2 3:53,2.2,16,2.3,15,7.1,16
2018/3/2 3:54,2.2,16,2.2,15,5.8,15
2018/3/2 3:55,2.5,16,2.5,15,7.8,16
2018/3/2 3:56,2.7,15,2.7,16,7.2,11
2018/3/2 3:57,3.1,15,3.1,15,7.8,11
2018/3/2 3:58,3,15,3.1,15,1.3,12
2018/3/2 3:59,2.9,15,3,15,1.5,16
2018/3/2 4:00,3,15,3,15,5,4
2018/3/2 4:01,2.9,15,3,15,4.9,1
2018/3/2 4:02,2.9,15,2.9,15,6.7,16
2018/3/2 4:03,2.7,15,2.8,15,5,14
2018/3/2 4:04,2.9,14,2.9,15,6.5,12
2018/3/2 4:05,2.7,14,2.9,15,4.4,11
2018/3/2 4:06,2.3,14,2.6,15,2.4,13
2018/3/2 4:07,2.1,14,2.3,15,2.2,12
2018/3/2 4:08,2.1,14,2.1,15,1.5,10
2018/3/2 4:09,2.1,13,2.1,15,1,8
2018/3/2 4:10,2,12,2.1,15,2,11
2018/3/2 4:11,1.9,12,2,15,3.1,7
2018/3/2 4:12,1.7,11,1.9,14,3,9
2018/3/2 4:13,1.5,10,1.7,14,0.8,10
2018/3/2 4:14,1.1,10,1.5,14,0.8,5
2018/3/2 4:15,1,9,1.1,14,2.2,6
2018/3/2 4:16,1,8,1,14,1.9,4
2018/3/2 4:17,0.9,8,1,14,1.4,1
2018/3/2 4:18,0.8,7,0.9,14,1,14
2018/3/2 4:19,0.8,7,0.8,13,0.5,15
2018/3/2 4:20,0.7,7,0.8,12,0.8,15
2018/3/2 4:21,0.6,4,0.7,12,1.8,15
2018/3/2 4:22,0.6,1,0.6,11,2.2,16
2018/3/2 4:23,0.6,16,0.6,10,1.9,16
2018/3/2 4:24,0.7,16,0.7,10,2.4,5
2018/3/2 4:25,0.8,16,0.8,9,2.6,5
2018/3/2 4:26,0.8,16,0.8,8,2.2,6
2018/3/2 4:27,0.9,16,0.9,8,2.9,3
2018/3/2 4:28,1.1,16,1.1,16,3.9,16
2018/3/2 4:29,1.5,16,1.5,16,5.4,15
2018/3/2 4:30,1.8,16,1.8,16,5.1,14
2018/3/2 4:31,1.8,1,1.8,16,2.2,12
2018/3/2 4:32,1.8,1,1.8,16,2.5,10
2018/3/2 4:33,1.8,3,1.8,16,1.9,10
2018/3/2 4:34,1.8,2,1.8,16,1.9,4
2018/3/2 4:35,1.7,2,1.8,16,1.5,3
2018/3/2 4:36,1.7,16,1.7,16,2,14
2018/3/2 4:37,1.7,16,1.7,16,2.6,16
2018/3/2 4:38,1.6,16,1.7,16,1.3,1
2018/3/2 4:39,1.2,16,1.6,16,1,15
2018/3/2 4:40,0.9,1,1.2,16,1.1,13
2018/3/2 4:41,1,1,1,1,5.5,2
2018/3/2 4:42,1.1,1,1.1,1,5,2
2018/3/2 4:43,1.3,1,1.3,3,3.9,1
2018/3/2 4:44,1.3,16,1.3,2,2.5,16
2018/3/2 4:45,1.4,16,1.4,1,3.1,1
2018/3/2 4:46,1.5,16,1.5,16,3.6,15
2018/3/2 4:47,1.5,16,1.5,16,3.5,16
2018/3/2 4:48,1.5,16,1.5,16,2.2,16
2018/3/2 4:49,1.5,16,1.5,16,2.1,15
2018/3/2 4:50,1.6,1,1.6,16,1.5,3
2018/3/2 4:51,1.5,16,1.6,16,0.8,6
2018/3/2 4:52,1.2,16,1.4,16,0.6,12
2018/3/2 4:53,1.1,16,1.2,16,1.8,14
2018/3/2 4:54,1,16,1.1,16,1.4,15
2018/3/2 4:55,0.9,15,1,16,1.4,15
2018/3/2 4:56,0.7,16,0.9,16,1.4,1
2018/3/2 4:57,0.7,16,0.7,16,1.3,2
2018/3/2 4:58,0.6,16,0.7,16,1.3,16
2018/3/2 4:59,0.7,15,0.7,16,3.3,2
2018/3/2 5:00,1,15,1,1,5,1
2018/3/2 5:01,1.2,16,1.2,16,4.5,1
2018/3/2 5:02,1.3,16,1.3,16,2.7,2
2018/3/2 5:03,1.4,1,1.4,16,2.5,2
2018/3/2 5:04,1.6,1,1.6,1,3.8,1
2018/3/2 5:05,1.8,1,1.8,1,3.9,16
2018/3/2 5:06,1.8,1,1.8,1,4.5,16
2018/3/2 5:07,2.2,16,2.2,16,5.8,15
2018/3/2 5:08,2.5,16,2.5,16,5.1,15
2018/3/2 5:09,2.5,16,2.6,16,3.8,14
2018/3/2 5:10,2.4,16,2.5,16,3.2,14
2018/3/2 5:11,2.4,16,2.4,16,5.1,16
2018/3/2 5:12,2.7,16,2.7,16,7.2,16
2018/3/2 5:13,2.8,16,2.8,16,3.3,1
2018/3/2 5:14,2.8,16,2.8,16,3.2,16
2018/3/2 5:15,3,16,3,16,7.9,16
2018/3/2 5:16,3.3,16,3.3,16,9.4,16
2018/3/2 5:17,3.4,16,3.4,16,8.3,1
2018/3/2 5:18,3.3,16,3.3,16,4.9,15
2018/3/2 5:19,3.5,16,3.5,16,6.4,15
2018/3/2 5:20,3.5,15,3.5,16,2.5,13
2018/3/2 5:21,3.4,16,3.5,16,2.4,12
2018/3/2 5:22,3,16,3.3,16,3.2,2
2018/3/2 5:23,3,16,3,16,5.4,16
2018/3/2 5:24,3,16,3,16,4.5,14
2018/3/2 5:25,2.8,15,3,16,5.4,16
2018/3/2 5:26,2.6,15,2.8,16,3.3,14
2018/3/2 5:27,2.2,15,2.6,16,2.4,10
2018/3/2 5:28,2.2,16,2.3,16,4.2,3
2018/3/2 5:29,2.1,16,2.2,16,6,1
2018/3/2 5:30,2.4,16,2.4,15,8.3,15
2018/3/2 5:31,2.6,16,2.6,16,5,15
2018/3/2 5:32,2.8,16,2.8,16,5.8,1
2018/3/2 5:33,2.9,16,2.9,16,5.4,15
2018/3/2 5:34,3,16,3,16,6.8,16
2018/3/2 5:35,3.1,16,3.1,16,4.8,16
2018/3/2 5:36,3.2,16,3.2,16,8.1,15
2018/3/2 5:37,3.7,16,3.7,16,9.3,16
2018/3/2 5:38,3.9,16,3.9,16,9.5,16
2018/3/2 5:39,3.9,16,4,16,3.7,15
2018/3/2 5:40,3.6,15,3.9,16,2.9,13
2018/3/2 5:41,3.4,15,3.5,16,2.2,14
2018/3/2 5:42,3.3,15,3.4,16,3.7,13
2018/3/2 5:43,3.3,14,3.4,16,6.1,12
2018/3/2 5:44,3.2,14,3.3,16,3.8,13
2018/3/2 5:45,3,14,3.1,16,3,16
2018/3/2 5:46,2.7,14,3,16,2.2,14
2018/3/2 5:47,2.2,14,2.7,16,1.9,15
2018/3/2 5:48,2.1,13,2.2,16,6.9,14
2018/3/2 5:49,2.1,13,2.1,16,5.4,13
2018/3/2 5:50,2.1,14,2.1,15,3,15
2018/3/2 5:51,2.4,14,2.4,15,8.2,16
2018/3/2 5:52,2.9,14,2.9,15,11.1,16
2018/3/2 5:53,3,15,3.1,14,7.8,14
2018/3/2 5:54,3,15,3,14,3,15
2018/3/2 5:55,3,15,3,15,3.5,14
2018/3/2 5:56,3.1,15,3.1,15,4.5,16
2018/3/2 5:57,3.5,15,3.5,15,7.8,15
2018/3/2 5:58,3.3,15,3.5,15,3.9,14
2018/3/2 5:59,3.2,15,3.2,15,3.8,14
2018/3/2 6:00,3.2,15,3.2,15,2.6,15
2018/3/2 6:01,3,15,3.2,15,3.7,16
2018/3/2 6:02,2.3,15,3,15,1,15
2018/3/2 6:03,1.9,15,2.3,15,0.5,8
2018/3/2 6:04,1.8,15,1.9,15,2.1,2
2018/3/2 6:05,1.9,15,1.9,15,5,16
2018/3/2 6:06,2.1,15,2.1,15,6.8,15
2018/3/2 6:07,2.1,15,2.1,15,5.8,15
2018/3/2 6:08,2.3,15,2.3,15,8.2,15
2018/3/2 6:09,2.3,16,2.3,15,4.4,16
2018/3/2 6:10,2.4,16,2.4,15,4.5,15
2018/3/2 6:11,2.7,16,2.7,15,9.1,16
2018/3/2 6:12,3.4,16,3.4,16,10.9,15
2018/3/2 6:13,4,16,4,16,10,16
2018/3/2 6:14,4.8,16,4.8,16,13.1,16
2018/3/2 6:15,5.3,16,5.3,16,13.2,15
2018/3/2 6:16,5.2,15,5.3,16,5.7,13
2018/3/2 6:17,5.1,15,5.2,16,4.7,13
2018/3/2 6:18,4.8,15,5.1,16,2.5,16
2018/3/2 6:19,4.7,15,4.8,16,5.6,16
2018/3/2 6:20,4.8,15,4.8,16,5.1,16
2018/3/2 6:21,4.4,15,4.8,16,4.7,3
2018/3/2 6:22,4.1,16,4.4,16,7.5,1
2018/3/2 6:23,3.9,15,4.1,16,6.1,15
2018/3/2 6:24,3.2,15,3.8,16,3.5,14
2018/3/2 6:25,2.7,15,3.2,15,2.4,11
2018/3/2 6:26,2.4,15,2.7,15,1.4,13
2018/3/2 6:27,2.2,15,2.4,15,2.2,15
2018/3/2 6:28,2.2,15,2.2,15,2.1,1
2018/3/2 6:29,2.1,15,2.2,15,1.8,1
2018/3/2 6:30,1.8,15,2,15,1.5,1
2018/3/2 6:31,1.8,15,1.8,15,4.5,16
2018/3/2 6:32,1.5,14,1.8,15,3.6,4
2018/3/2 6:33,1.5,15,1.5,15,5.1,16
2018/3/2 6:34,1.4,15,1.5,15,3.1,1
2018/3/2 6:35,1.6,15,1.6,15,6.8,1
2018/3/2 6:36,2.3,16,2.3,15,15.2,15
2018/3/2 6:37,2.6,16,2.6,16,6.4,16
2018/3/2 6:38,2.7,16,2.7,16,3.6,16
2018/3/2 6:39,2.7,16,2.7,16,2.6,2
2018/3/2 6:40,2.8,16,2.8,16,6.1,16
2018/3/2 6:41,3.1,16,3.1,16,8.5,14
2018/3/2 6:42,3.2,16,3.2,16,5.1,15
2018/3/2 6:43,3.1,16,3.2,16,4.2,14
2018/3/2 6:44,3,16,3.1,16,3.2,16
2018/3/2 6:45,2.9,16,3,16,5,16
2018/3/2 6:46,2.3,16,2.8,16,2.5,5
2018/3/2 6:47,2.1,1,2.3,16,5.4,3
2018/3/2 6:48,2.2,1,2.2,16,3.6,3
2018/3/2 6:49,2.2,1,2.2,16,3.2,9
2018/3/2 6:50,2.2,2,2.2,16,2.2,6
2018/3/2 6:51,1.7,3,2.1,16,1,6
2018/3/2 6:52,1.5,3,1.7,16,1.8,15
2018/3/2 6:53,1.4,3,1.5,16,2,16
2018/3/2 6:54,1.4,4,1.4,16,3.6,4
2018/3/2 6:55,1.3,4,1.5,16,5.2,4
2018/3/2 6:56,1.4,5,1.4,16,3.6,8
2018/3/2 6:57,1.3,6,1.4,1,2.2,8
2018/3/2 6:58,1.3,5,1.3,1,2.9,4
2018/3/2 6:59,1.2,5,1.3,1,2.2,3
2018/3/2 7:00,1.3,4,1.3,2,2.7,3
2018/3/2 7:01,1.4,4,1.4,3,2.7,4
2018/3/2 7:02,1.5,4,1.5,3,7.8,2
2018/3/2 7:03,1.8,4,1.8,4,7.7,16
2018/3/2 7:04,1.8,4,1.8,4,4.2,1
2018/3/2 7:05,1.7,5,1.7,4,1.3,5
2018/3/2 7:06,1.6,4,1.6,4,2,5
2018/3/2 7:07,1.6,4,1.6,4,3.6,4
2018/3/2 7:08,1.7,4,1.7,4,3.1,3
2018/3/2 7:09,1.8,3,1.8,4,3.5,2
2018/3/2 7:10,2,3,2,3,5.6,16
2018/3/2 7:11,2.2,2,2.2,3,5.8,1
2018/3/2 7:12,2.3,2,2.3,2,4.4,1
2018/3/2 7:13,2.2,2,2.3,2,4.4,7
2018/3/2 7:14,2.2,2,2.3,2,4.4,7
2018/3/2 7:15,2.5,1,2.5,1,7.5,1
2018/3/2 7:16,2.8,1,2.8,1,7.1,1
2018/3/2 7:17,2.9,1,2.9,1,5.1,14
2018/3/2 7:18,2.8,16,2.9,1,2.2,16
2018/3/2 7:19,2.8,15,2.8,1,4.5,14
2018/3/2 7:20,2.5,15,2.8,1,3.8,15
2018/3/2 7:21,2.3,16,2.5,1,1.9,16
2018/3/2 7:22,2.3,16,2.3,1,7.1,1
2018/3/2 7:23,2.5,16,2.5,1,7,15
2018/3/2 7:24,2.7,16,2.7,1,5.5,14
2018/3/2 7:25,2.4,15,2.7,1,2.5,1
2018/3/2 7:26,2.1,15,2.4,1,1.3,9
2018/3/2 7:27,1.9,14,2.1,16,2.2,4
2018/3/2 7:28,2.1,15,2.1,16,5,4
2018/3/2 7:29,2.2,16,2.2,15,7.4,16
2018/3/2 7:30,2.2,16,2.2,16,4.7,4
2018/3/2 7:31,2.4,15,2.4,16,7.9,14
2018/3/2 7:32,2.6,15,2.6,16,7.1,15
2018/3/2 7:33,2.8,15,2.8,15,9.4,15
2018/3/2 7:34,2.9,15,2.9,15,7.1,15
2018/3/2 7:35,3,15,3,15,4.2,14
2018/3/2 7:36,3,15,3,15,4.1,13
2018/3/2 7:37,3,15,3.1,15,0.9,13
2018/3/2 7:38,2.8,15,3,15,1.3,8
2018/3/2 7:39,2.6,15,2.7,15,3.6,2
2018/3/2 7:40,2.8,15,2.8,15,7.2,16
2018/3/2 7:41,2.8,15,2.9,15,8.2,16
2018/3/2 7:42,2.8,16,2.8,15,6,1
2018/3/2 7:43,2.6,15,2.8,15,7.1,12
2018/3/2 7:44,2.7,14,2.7,15,5.7,10
2018/3/2 7:45,2.8,12,2.8,15,6.3,8
2018/3/2 7:46,2.9,12,2.9,15,6.3,9
2018/3/2 7:47,3.1,11,3.1,11,6.7,9
2018/3/2 7:48,3.1,11,3.1,11,2.9,9
2018/3/2 7:49,3.1,12,3.2,12,3.8,1
2018/3/2 7:50,2.8,12,3.1,12,3.5,1
2018/3/2 7:51,2.6,11,2.8,12,2.6,4
2018/3/2 7:52,2.6,11,2.6,12,3.7,2
2018/3/2 7:53,2.3,12,2.5,12,4.3,1
2018/3/2 7:54,2,1,2.2,12,5.5,2
2018/3/2 7:55,2.1,1,2.1,12,6.2,1
2018/3/2 7:56,2.2,1,2.2,12,6.3,1
2018/3/2 7:57,2.5,1,2.5,12,7.8,16
2018/3/2 7:58,2.9,1,2.9,12,8.6,16
2018/3/2 7:59,2.9,1,3,12,4.7,16
2018/3/2 8:00,3,1,3,1,4.1,3
2018/3/2 8:01,3.2,1,3.2,1,5.4,2
2018/3/2 8:02,3.3,1,3.3,1,5,2
2018/3/2 8:03,3.3,2,3.3,1,4.2,6
2018/3/2 8:04,3.4,2,3.4,2,5.6,2
2018/3/2 8:05,3.3,2,3.4,2,6,2
2018/3/2 8:06,3.2,2,3.3,2,4.2,2
2018/3/2 8:07,2.8,2,3.1,2,3,4
2018/3/2 8:08,2.4,3,2.8,2,3,4
2018/3/2 8:09,2.4,3,2.4,2,3.1,5
2018/3/2 8:10,2.4,3,2.4,2,4.1,5
2018/3/2 8:11,2.3,3,2.4,2,4.4,6
2018/3/2 8:12,2.2,3,2.2,2,5.1,11
2018/3/2 8:13,2.3,3,2.3,2,4.4,12
2018/3/2 8:14,2.1,2,2.3,2,2.9,12
2018/3/2 8:15,2,4,2.1,2,2.9,9
2018/3/2 8:16,1.9,7,2,2,2.6,8
2018/3/2 8:17,1.7,8,1.9,2,0.9,6
2018/3/2 8:18,1.6,8,1.7,3,1,2
2018/3/2 8:19,1.5,8,1.6,3,2,5
2018/3/2 8:20,1.5,8,1.5,3,2.5,5
2018/3/2 8:21,1.4,8,1.5,3,3.8,8
2018/3/2 8:22,1.3,8,1.5,3,4.2,11
2018/3/2 8:23,1.4,8,1.4,3,5.2,11
2018/3/2 8:24,1.5,8,1.5,2,4.2,8
2018/3/2 8:25,1.4,8,1.5,5,1.4,10
2018/3/2 8:26,1.4,8,1.4,7,1.8,16
2018/3/2 8:27,1.5,7,1.5,8,2.5,3
2018/3/2 8:28,1.8,5,1.8,5,6.8,1
2018/3/2 8:29,2.2,16,2.2,1,6.9,1
2018/3/2 8:30,2.4,16,2.4,16,7.2,1
2018/3/2 8:31,2.5,1,2.5,16,4.8,3
2018/3/2 8:32,2.8,1,2.8,1,5.4,1
2018/3/2 8:33,2.8,1,2.8,1,5.6,1
2018/3/2 8:34,2.8,1,2.8,1,4.5,16
2018/3/2 8:35,3.1,1,3.1,1,5.7,16
2018/3/2 8:36,3.4,1,3.4,1,5.7,16
2018/3/2 8:37,3.7,1,3.7,1,7.4,15
2018/3/2 8:38,4,1,4,1,8.2,16
2018/3/2 8:39,3.8,1,4,1,7.7,16
2018/3/2 8:40,3.8,1,3.9,1,6.2,16
2018/3/2 8:41,3.7,16,3.8,1,2.2,1
2018/3/2 8:42,3.4,16,3.6,1,1.1,8
2018/3/2 8:43,3,16,3.3,1,1.5,7
2018/3/2 8:44,2.8,16,3,1,2,8
2018/3/2 8:45,2.5,16,2.8,1,1.4,8
2018/3/2 8:46,2.2,15,2.4,1,0.9,1
2018/3/2 8:47,2,16,2.2,1,4.2,2
2018/3/2 8:48,1.6,16,2,1,5.4,2
2018/3/2 8:49,1.6,1,1.6,1,4.8,2
2018/3/2 8:50,1.6,1,1.7,1,7.1,1
2018/3/2 8:51,1.8,2,1.8,16,5.1,16
2018/3/2 8:52,2.1,2,2.1,16,6.5,1
2018/3/2 8:53,2.3,2,2.3,16,6.4,3
2018/3/2 8:54,2.4,2,2.4,16,5.4,3
2018/3/2 8:55,2.6,2,2.6,2,5.1,2
2018/3/2 8:56,2.9,2,2.9,2,8.9,15
2018/3/2 8:57,3,1,3,2,4.7,11
2018/3/2 8:58,3,1,3,2,5.4,10
2018/3/2 8:59,2.9,1,3,2,2.9,9
2018/3/2 9:00,2.8,16,2.9,2,4.5,10
2018/3/2 9:01,2.9,13,2.9,2,5.2,11
2018/3/2 9:02,2.7,11,2.9,2,6,8
2018/3/2 9:03,2.8,11,2.8,2,5.2,12
2018/3/2 9:04,2.9,11,2.9,2,5.6,11
2018/3/2 9:05,2.9,11,3,2,3.1,12
2018/3/2 9:06,2.7,11,2.9,2,3.1,12
2018/3/2 9:07,2.7,11,2.7,1,4.8,11
2018/3/2 9:08,2.7,11,2.7,1,3.9,11
2018/3/2 9:09,2.6,11,2.7,11,3.6,11
2018/3/2 9:10,2.3,11,2.6,11,0.8,9
2018/3/2 9:11,2,11,2.3,11,0.1,13
2018/3/2 9:12,1.9,11,2,11,3.7,9
2018/3/2 9:13,1.7,11,1.9,11,4.4,9
2018/3/2 9:14,1.4,11,1.7,11,1.4,10
2018/3/2 9:15,1.3,11,1.4,11,1.5,4
2018/3/2 9:16,1.2,11,1.3,11,1.6,14
2018/3/2 9:17,1,11,1.2,11,1.8,9
2018/3/2 9:18,0.9,10,1,11,2.6,9
2018/3/2 9:19,0.8,10,0.9,11,2.4,9
2018/3/2 9:20,0.9,9,0.9,11,1.5,4
2018/3/2 9:21,1,7,1,11,1.3,2
2018/3/2 9:22,1,6,1,11,1.5,1
2018/3/2 9:23,1,4,1,11,2.7,3
2018/3/2 9:24,1.2,4,1.2,11,5.8,2
2018/3/2 9:25,1.5,3,1.5,3,6.5,1
2018/3/2 9:26,1.6,3,1.6,3,4.9,16
2018/3/2 9:27,1.7,2,1.7,3,3.2,2
2018/3/2 9:28,1.7,2,1.8,2,3.7,3
2018/3/2 9:29,2,2,2,2,6.4,16
2018/3/2 9:30,2.3,2,2.3,2,6.4,16
2018/3/2 9:31,2.7,1,2.7,1,9.2,15
2018/3/2 9:32,3.1,1,3.1,1,7.2,16
2018/3/2 9:33,3.2,1,3.2,1,6.1,1
2018/3/2 9:34,3.3,16,3.3,16,6.8,2
2018/3/2 9:35,3.3,16,3.4,16,6.3,16
2018/3/2 9:36,3.3,16,3.3,16,4.4,1
2018/3/2 9:37,3.3,16,3.3,16,2.9,12
2018/3/2 9:38,3.6,16,3.6,16,6.7,15
2018/3/2 9:39,3.4,16,3.6,16,4.7,15
2018/3/2 9:40,3.3,15,3.4,16,6.7,14
2018/3/2 9:41,3.2,15,3.3,16,7.4,16
2018/3/2 9:42,3,15,3.2,16,5.2,14
2018/3/2 9:43,2.9,15,3,16,3.5,2
2018/3/2 9:44,2.6,15,2.9,16,3.5,16
2018/3/2 9:45,2.6,15,2.6,16,5.2,3
2018/3/2 9:46,2.4,16,2.6,16,3.3,6
2018/3/2 9:47,2.4,16,2.4,16,2.4,9
2018/3/2 9:48,2,1,2.4,16,1.9,8
2018/3/2 9:49,1.9,2,2,16,1.5,15
2018/3/2 9:50,1.8,3,1.9,15,3,2
2018/3/2 9:51,1.6,4,1.8,15,2.5,2
2018/3/2 9:52,1.4,4,1.5,15,3.6,1
2018/3/2 9:53,1.4,3,1.5,15,3.5,16
2018/3/2 9:54,1.4,2,1.4,15,3.6,15
2018/3/2 9:55,1.3,1,1.4,15,6,15
2018/3/2 9:56,1.6,16,1.6,16,5.7,15
2018/3/2 9:57,1.6,16,1.6,16,4.5,14
2018/3/2 9:58,1.6,16,1.6,2,2,16
2018/3/2 9:59,1.9,1,1.9,2,6.1,6
2018/3/2 10:00,1.9,16,1.9,1,4.2,6
2018/3/2 10:01,2,16,2,16,3.6,2
2018/3/2 10:02,2,16,2.1,16,3,1
2018/3/2 10:03,2.1,16,2.1,16,4.1,15
2018/3/2 10:04,2.3,16,2.3,16,6.1,2
2018/3/2 10:05,2.4,1,2.4,1,5.6,2
2018/3/2 10:06,2.4,1,2.4,1,6.4,16
2018/3/2 10:07,2.5,1,2.5,1,5.5,1
2018/3/2 10:08,2.6,1,2.6,1,2.7,3
2018/3/2 10:09,2.4,1,2.6,1,2.5,2
2018/3/2 10:10,2.4,1,2.5,1,4.7,2
2018/3/2 10:11,2.4,1,2.4,1,3.5,3
2018/3/2 10:12,2.5,1,2.5,1,6.4,2
2018/3/2 10:13,2.3,1,2.5,1,2.1,16
2018/3/2 10:14,2.4,1,2.5,1,7.1,16
2018/3/2 10:15,2.6,1,2.6,1,7.6,16
2018/3/2 10:16,2.7,16,2.7,1,7.4,15
2018/3/2 10:17,2.7,16,2.7,1,5,15
2018/3/2 10:18,2.8,16,2.8,16,5.5,15
2018/3/2 10:19,2.8,15,2.9,16,2.6,13
2018/3/2 10:20,2.7,15,2.8,16,2,16
2018/3/2 10:21,2.9,15,2.9,16,7,16
2018/3/2 10:22,2.9,15,2.9,16,5.5,16
2018/3/2 10:23,3.2,15,3.2,15,6.9,15
2018/3/2 10:24,3.1,15,3.2,15,6.9,15
2018/3/2 10:25,3.1,15,3.2,15,7.4,15
2018/3/2 10:26,3.1,15,3.1,15,6,15
2018/3/2 10:27,3,15,3.1,15,4.7,16
2018/3/2 10:28,2.9,15,3,15,4.7,15
2018/3/2 10:29,3.1,15,3.1,15,4.8,16
2018/3/2 10:30,3.3,16,3.3,16,6.1,1
2018/3/2 10:31,3.2,15,3.3,16,2.7,13
2018/3/2 10:32,3,15,3.2,16,3,8
2018/3/2 10:33,2.8,15,3,16,2.4,10
2018/3/2 10:34,2.5,15,2.7,16,2,10
2018/3/2 10:35,2.1,15,2.4,16,2.1,15
2018/3/2 10:36,2,15,2.1,16,3.9,15
2018/3/2 10:37,2,15,2.1,16,4.8,15
2018/3/2 10:38,1.8,15,2,16,1,12
2018/3/2 10:39,1.7,14,1.8,16,3.3,16
2018/3/2 10:40,1.6,14,1.7,16,4.8,1
2018/3/2 10:41,1.6,15,1.6,15,4.4,15
2018/3/2 10:42,1.7,15,1.7,15,3.2,1
2018/3/2 10:43,1.7,16,1.7,15,1.9,1
2018/3/2 10:44,1.7,16,1.7,15,2.4,16
2018/3/2 10:45,1.7,16,1.7,15,3.1,16
2018/3/2 10:46,1.7,16,1.8,15,4.4,16
2018/3/2 10:47,1.9,16,1.9,15,6.7,15
2018/3/2 10:48,2.3,16,2.3,16,7.5,1
2018/3/2 10:49,2.7,1,2.7,1,6.8,16
2018/3/2 10:50,2.9,16,2.9,16,6.4,16
2018/3/2 10:51,2.8,16,2.9,16,3.8,14
2018/3/2 10:52,2.8,16,2.8,16,3.1,15
2018/3/2 10:53,2.7,15,2.8,16,1.5,9
2018/3/2 10:54,2.7,15,2.7,16,1,9
2018/3/2 10:55,2.8,15,2.8,16,4.9,13
2018/3/2 10:56,2.9,14,2.9,16,3.8,13
2018/3/2 10:57,2.6,14,2.9,16,2.1,12
2018/3/2 10:58,2.2,13,2.5,16,3.8,9
2018/3/2 10:59,1.9,12,2.2,16,3.5,10
2018/3/2 11:00,1.7,11,1.8,16,3.5,10
2018/3/2 11:01,1.6,11,1.7,14,2.7,12
2018/3/2 11:02,1.6,10,1.6,14,2.4,9
2018/3/2 11:03,1.6,10,1.6,14,2,8
2018/3/2 11:04,1.7,10,1.7,14,1.9,5
2018/3/2 11:05,1.5,9,1.7,14,1.5,3
2018/3/2 11:06,1.3,8,1.4,14,1.3,6
2018/3/2 11:07,1.3,8,1.3,14,2.6,7
2018/3/2 11:08,1.4,9,1.4,13,4.7,11
2018/3/2 11:09,1.6,8,1.6,12,5.5,10
2018/3/2 11:10,1.5,8,1.5,11,3.3,11
2018/3/2 11:11,1.7,8,1.7,10,6,10
2018/3/2 11:12,2,9,2,9,7.1,10
2018/3/2 11:13,2.1,9,2.1,9,4.8,10
2018/3/2 11:14,2.1,10,2.2,9,4.8,10
2018/3/2 11:15,2.3,10,2.3,10,3.9,7
2018/3/2 11:16,2.5,10,2.5,10,6,10
2018/3/2 11:17,2.7,10,2.7,10,5.4,10
2018/3/2 11:18,2.5,10,2.7,10,3.5,6
2018/3/2 11:19,2.5,10,2.5,10,4.4,9
2018/3/2 11:20,2.5,10,2.5,10,4.5,9
2018/3/2 11:21,2.4,9,2.5,10,2.6,7
2018/3/2 11:22,2,9,2.3,10,3.1,11
2018/3/2 11:23,1.9,9,2,10,2.6,8
2018/3/2 11:24,1.9,9,1.9,10,1.8,8
2018/3/2 11:25,1.8,9,1.9,10,2.5,8
2018/3/2 11:26,1.7,9,1.8,10,3.9,10
2018/3/2 11:27,1.6,9,1.7,10,3.9,8
2018/3/2 11:28,1.5,9,1.6,10,1.3,10
2018/3/2 11:29,1.4,9,1.5,10,2.4,8
2018/3/2 11:30,1.3,9,1.4,10,3.2,8